Location: Altmatt
(47.1333°N, 8.7000°E)
Time: 19:08:17
(UTC+00:00)

Cosmos 1328 Rocket - Pass Details

Date: 13 July 2020
Orbit: 601 x 627 km, 82.5° (Epoch: 11 August)

Event Time Altitude Azimuth Distance (km) Brightness Sun altitude
Rises 21:33:59 0° 355° (N) 2,865 8.3 -16.3°
Reaches altitude 10° 21:36:15 10° 0° (N) 1,958 7.1 -16.5°
Maximum altitude 21:40:28 51° 77° (ENE) 768 3.9 -16.8°
Enters shadow 21:42:07 32° 134° (SE) 1,041 4.2 -17.0°
